Preview of NWS' New Version of Forecast
This preview is not operational and should not be used for support decisions.
Latest weather observations around

Emigrant Gap, Blue Canyon Nyack Airport (KBLU)

Using International System of Units (Switch to English Units)
Date/ Time (PDT) Wind (kph) Vis. (km) Weather Sky Cond. Temp (°C) Rel. Humidity Wind Chill (°C) Heat Index (°C) Pressure Precip. (cm)
Air Dwpt 6 hour Altimeter (hPa) Sea level (hPa) 1 hr 3 hr 6 hr
Max Min
Oct 16 00:52 ENE 17 16.09 Clear CLR 11 -15     15%     1024.7        
Oct 15 23:52 ENE 13 16.09 Clear CLR 11 -17     12%     1024.7        
Oct 15 22:52 ENE 18 16.09 Clear CLR 11 -17     12%     1025.1        
Oct 15 21:52 ENE 21 16.09 Clear CLR 12 -19     10%     1025.1 1020.4      
Oct 15 20:52 E 18 16.09 Clear CLR 12 -18     11%     1025.1 1020.9      
Oct 15 19:52 E 17 16.09 Clear CLR 12 -17     11%     1025.1 1021.6      
Oct 15 18:52 9 16.09 Clear CLR 13 -16     12%     1025.4 1021.8      
Oct 15 17:52 NE 13 16.09 Clear CLR 16 -14     11%     1025.4 1021      
Oct 15 16:52 9 16.09 Clear CLR 18 -19     7%     1025.4 1020.3      
Oct 15 15:52 8 16.09 Clear CLR 19 -18     7%     1025.4 1019.9      
Oct 15 14:52 5 16.09 Clear CLR 19 -21     5%     1025.4 1020.2      
Oct 15 13:52 E 13 16.09 Clear CLR 19 -19     6%     1025.7 1020.6      
Oct 15 12:52 Calm 16.09 Clear CLR 18 -15     9%     1026.4 1021.4      
Oct 15 11:52 W 8 16.09 Clear CLR 17 -14     11%     1026.4 1021.8      
Oct 15 10:52 11 16.09 Clear CLR 16 -17     9%     1026.1 1021.8      
Oct 15 09:52 E 13 16.09 Clear CLR 12 -16     13%     1025.7 1022.3      
Oct 15 08:52 E 13 16.09 Clear CLR 9 -18     13% 7   1025.7 1022.8      
Oct 15 07:52 E 13 16.09 Clear CLR 6 -18     16% 3   1025.7 1023.2      
Oct 15 06:52 ENE 13 16.09 Clear CLR 5 -16     20% 2   1025.7 1023.4      
Oct 15 05:52 9 16.09 Clear CLR 6 -18     16% 4   1025.7 1022.6      
Oct 15 04:52 8 16.09 Clear CLR 6 -18     15% 5   1025.1 1021.7      
Oct 15 03:52 E 15 16.09 Clear CLR 7 -18     14% 5   1024.1 1019.9      
Oct 15 02:52 NE 13 16.09 Clear CLR 6 -16     19% 3   1023.7 1019.6      
Oct 15 01:52 NE 13 16.09 Clear CLR 6 -16     20% 3   1023.4 1019.4      
Oct 15 00:52 8 16.09 Clear CLR 6 -14     21% 5   1022.7 1018.7      
Oct 14 23:52 9 16.09 Clear CLR 6 -14     21% 4   1022.4        
Oct 14 22:52 ENE 21 16.09 Clear CLR 7 -14     21% 3   1021.7        
Oct 14 21:52 E 22 16.09 Clear   7 -15     19% 4   1020.7        
Oct 14 20:52   16.09 Clear CLR 7 -15     19%              
Oct 14 19:52   16.09 Clear CLR 8 -15     18%     1021        
Oct 14 18:52 E 13 16.09 Clear CLR 8 -16     17% 6   1021        
Oct 14 17:52 ENE 13 16.09 Clear CLR 11 -17     13%     1021 1016.9      
Oct 14 16:52 ENE 18 16.09 Clear CLR 12 -14     15%     1021 1016.9      
Oct 14 15:52 ENE 13 16.09 Clear CLR 13 -11     17%     1021 1015.8      
Oct 14 14:52 ENE 17 16.09 Clear CLR 14 -13     14%     1020.3 1014.7      
Oct 14 13:52 E 17 16.09 Clear CLR 14 -15     12%     1020 1014.7      
Oct 14 12:52 E 13 16.09 Clear CLR 14 -12     15%     1020        
Oct 14 11:52 ENE 17 16.09 Clear CLR 13 -12     16%     1020.3        
Oct 14 10:52 ENE 21 16.09 Clear CLR 11 -9     23%     1020 1015.2      
Oct 14 08:52 ENE 22 16.09 Clear CLR 9 -11     24% 6   1019 1014.2      
Oct 14 07:52 ENE 17 16.09 Clear CLR 8 -10     27% 5   1018.3 1013.5      
Oct 14 06:52 NE 17 16.09 Clear CLR 8 -10     26% 6   1018 1012.5      
Oct 14 05:52 9 16.09 Clear CLR 9 -10     25% 7   1017.3        
Oct 14 04:52 ENE 18 16.09 Clear CLR 9 -9     26% 7   1016.6        
Oct 14 03:52 ENE 17 16.09 Clear CLR 11 -10     22%     1016.6        
Oct 14 02:52 NE 21 16.09 Clear CLR 11 -10     22%     1016.6        
Oct 14 01:52 NE 18 16.09 Clear CLR 11 -10     22%     1016.9        
Oct 14 00:52 ENE 18 16.09 Clear CLR 12 -11     19%     1016.9        
Oct 13 23:52 9 16.09 Clear CLR 12 -9     22%     1016.9        
Oct 13 22:52 11 16.09 Clear CLR 12 -8     24%     1017.3 1010.2      
Oct 13 21:52 5 16.09 Clear CLR 12 -9     22%     1016.9 1010.3      
Oct 13 20:52 8 16.09 Clear CLR 13 -9     21%     1016.9 1010.5      
Oct 13 19:52 9 16.09 Clear CLR 14 -8     21%     1016.9 1010.8      
Oct 13 18:52 9 16.09 Clear CLR 16 -6     23%     1016.9 1010.6      
Oct 13 17:52 9 16.09 Clear CLR 18 -4     21%     1016.3 1009.1      
Oct 13 16:52 W 15 16.09 Clear CLR 19 0     28%     1015.9 1009      
Oct 13 15:52 WSW 13 16.09 Clear CLR 19 -1     26%     1015.9 1009      
Oct 13 14:52 WSW 13 16.09 Clear CLR 19 -1     26%     1015.9 1008.5      
Oct 13 13:52 W 13 16.09 Clear CLR 20 -1     25%     1015.9 1008.9      
Oct 13 12:52 W 13 16.09 Clear CLR 20 -2     22%     1016.3 1008.9      
Oct 13 11:52 9 16.09 Clear CLR 21 -4     18%     1016.3 1008.7      
Oct 13 10:52 S 9 16.09 Clear CLR 19 -4     20%     1016.6 1009.2      
Oct 13 09:52 9 16.09 Clear CLR 18 -6     20%     1016.6 1009.7      
Oct 13 08:52 NE 11 16.09 Clear CLR 16 -7     21%     1016.6 1010.4      
Notice The following observation data may not be complete
Oct 13 07:52 NNE 9 16.09 Clear CLR   -11      %     1016.3 1010.4      
Notice The following observation data may not be complete
Oct 13 06:52 11 16.09 Clear CLR   -11      %     1016.3 1010.3      
Oct 13 04:52 NE 5 16.09 Clear CLR 12 -12     17%     1015.6 1009      
Oct 13 02:52 ENE 8 16.09 Clear CLR 12 -9     22%     1016.3 1009.1      
Oct 12 22:52 ESE 5 16.09 Clear CLR 13 -9     21%     1016.3 1010.2      
Oct 12 21:52 NE 8 16.09 Clear CLR 13 -7     24%     1016.6 1010.7      
Oct 12 18:52 N 5 16.09 Clear CLR 14 1     40%     1015.9 1010.7      
Oct 12 14:52 ESE 13 16.09 Clear CLR 19 -7     16%     1016.3 1009.9      
Oct 12 08:52 9 16.09 Clear CLR 12 -3     36%     1018.6 1014.1      
Oct 12 05:52 9 16.09 Clear CLR 8 -2     48% 7   1018 1013.3      
Oct 12 03:52 E 13 16.09 Clear CLR 9 -2     44% 7   1017.6 1012.8      
Oct 11 20:52 ENE 17 16.09 Clear   10 -2     44%     1015.6 1011.3      
Oct 11 14:52 5 16.09 Mostly Clear FEW075 16 -2     31%     1013.9 1008.4      
Oct 11 08:52 Calm 16.09 Clear CLR 11 3     61%     1013.9 1009.8      
Oct 11 07:52 Calm 16.09 Clear CLR 10 3     63%     1013.6 1009.3      
Oct 11 05:52 NE 8 16.09 Mostly Cloudy BKN050 9 3     68% 8   1012.5 1008.6      
Oct 10 14:52 WSW 8 16.09 Cloudy BKN028 OVC034 12 6     69%     1012.2 1007.7      
Oct 10 14:50 SW 8 16.09 Cloudy BKN028 OVC038 12 6     67%     1012.2        
Oct 10 10:52 W 11 16.09 Mostly Cloudy BKN040 BKN050 12 6     64%     1013.2 1008.1      
Oct 09 21:52 Calm 16.09 Clear   11 5     68%     1013.2 1007.7      
Oct 09 15:52 SW 15 16.09 Clear CLR 15 3     45%     1013.2 1007.4      
Oct 09 14:52 11 16.09 Clear CLR 15 3     45%     1013.6 1007.6      
Oct 09 12:52 W 13 16.09 Clear CLR 15 4     49%     1014.6 1008.6      
Oct 09 09:52 Calm 16.09 Clear CLR 14 4     51%     1015.2 1009.4      
Oct 09 08:52 Calm 16.09 Clear CLR 12 4     59%     1015.2 1009.6      
Oct 09 01:52 11 16.09 Clear CLR 11 4     61%     1014.6 1008.4      
Oct 08 20:52 5 16.09 Clear CLR 13 5     59%     1014.9 1009.7      
Oct 08 18:52 WNW 8 16.09 Clear CLR 13 6     60%       1009.6      
Oct 08 16:52 W 17 16.09 Clear CLR 16 2     38%       1008.8      
Oct 08 11:52 5 16.09 Clear CLR 16 -7     20%     1015.2 1009.5      
Oct 08 10:52 9 16.09 Clear CLR 15 -9     18%     1015.6 1010.1      
Oct 08 09:52 ENE 17 16.09 Clear CLR 13 -10     19%     1015.6 1010.8      
Oct 08 06:52 11 16.09 Clear CLR 9 -7     31% 7   1014.9 1010.8      
Oct 08 01:52 NE 13 16.09 Clear CLR 9 -3     42% 7   1016.3 1010.8      
Oct 07 23:52 11 16.09 Clear CLR 9 -3     42% 7   1016.3 1011.4      
Oct 07 20:52 8 16.09 Clear CLR 9 -3     42% 8   1016.6 1013      
Oct 07 15:52 NNE 15 16.09 Clear CLR 16 -5     24%     1016.6 1011.8      
Oct 07 14:52 11 16.09 Clear CLR 16 -6     23%     1016.3 1011.5      
Oct 07 08:52 ENE 15 16.09 Clear CLR 8 -6     38% 5   1015.2        
Oct 07 05:52 8 16.09 Clear CLR 6 -4     50% 4     1011.8      
Oct 07 04:52 11 16.09 Clear CLR 6 -4     49% 4   1015.2 1011.1      
Oct 07 02:52 11 16.09 Clear CLR 7 -4     47% 4     1011.2      
Oct 07 01:52 NE 13 16.09 Clear CLR 7 -3     49% 5   1015.6 1011.3      
Oct 06 20:52 8 16.09 Clear CLR 9 2     59% 8   1016.3 1012.3      
Oct 06 18:52 8 16.09 Mostly Clear FEW050 11 2     54%     1015.6 1011.9      
Oct 06 17:52 N 13 16.09 Mostly Clear FEW050 12 1     47%       1011.4      
Oct 06 16:52 N 13 16.09 Cloudy BKN050 OVC060 14 2     44%     1015.6 1011.1      
Oct 06 15:52   16.09 Mostly Clear FEW050 FEW060 14 2     44%     1015.2 1010.6      
Oct 06 12:52   16.09 Clear CLR 13 2     47%     1015.6 1011.3      
Oct 06 08:52 NNW 13 16.09 Clear CLR 9 4     73% 7   1016.6 1012.7      
Oct 06 07:41 NNW 8 16.09 Mostly Cloudy BKN015 7 6     90% 6   1016.6        
Oct 06 05:35 Calm 16.09 Mostly Cloudy BKN014 8 4     79%     1016.6        
Oct 06 02:52 Calm 16.09 Cloudy SCT016 BKN022 OVC085 8 6     86%     1017.6 1013.4      
Oct 06 01:52 ENE 5 16.09 Cloudy OVC019 8 6     89% 7   1018.3 1013.8 0 0  
Oct 06 00:59 NE 5 16.09 Light Rain BKN023 BKN030 OVC047 7 6     93% 6   1018.6   0    
Oct 06 00:52 5 16.09 Light Rain SCT023 BKN030 OVC048 8 6     86% 7   1018.6 1014.6 0    
Oct 06 00:49 NE 5 16.09 Light Rain FEW021 BKN028 OVC048 8 6     87% 7   1018.6   0    
Oct 05 22:52 NNW 5 16.09 Cloudy FEW021 BKN038 OVC045 9 7     86% 9   1019.7 1015.1      
Oct 05 13:52 Calm 16.09 Mostly Clear FEW034 13 4     57%     1021.3 1017.3      
Oct 05 11:52 9 16.09 Clear CLR 13 3     51%     1022 1018.1      
Oct 05 09:52 Calm 16.09 Clear CLR 12 4     59%     1022 1017.9      
Oct 05 05:52 NE 5 16.09 Clear CLR 7 4     82% 6   1020.3 1017.4      
Oct 05 04:52 Calm 16.09 Clear CLR 7 4     82%     1020.3 1017.3      
Oct 05 03:52 Calm 16.09 Clear CLR 7 4     82%     1020 1017.1      
Oct 05 02:52 NE 5 16.09 Clear CLR 7 5     86% 6   1020.3 1017.3      
Oct 05 01:52 Calm 16.09 Clear CLR 7 5     89%     1020.3 1017.3      
Oct 05 01:12 Calm 16.09 Mostly Clear FEW029 7 5     86%     1020.3        
Oct 05 00:52 Calm 16.09 Mostly Cloudy BKN027 7 6     90%     1020.3 1017.5      
Oct 04 23:52 Calm 16.09 Mostly Cloudy BKN022 7 6     90%     1020.3 1017.4      
Oct 04 23:39 Calm 16.09 Mostly Cloudy BKN022 7 6     93%     1020.3        
Oct 04 22:52 Calm 16.09 Mostly Clear FEW035 7 6     93%     1020.3 1017.3     0
Oct 04 22:20 ESE 5 16.09 Cloudy SCT024 OVC036 8 7     93% 7   1020.3        
Oct 04 21:52 Calm 9.66 Fog/Mist BKN023 OVC033 8 7     93%     1020 1016.8 0    
Oct 04 21:39 E 5 12.87 Cloudy BKN022 OVC036 8 7     93% 7   1020   0    
Oct 04 21:14 ESE 5 6.44 Fog/Mist SCT018 BKN036 OVC055 8 7     93% 7   1020   0    
Oct 04 21:06 Calm 16.09 Cloudy FEW005 BKN018 OVC046 8 7     93%     1020   0    
Oct 04 20:52 5 6.44 Light Rain and Fog/Mist FEW003 BKN032 OVC049 8 7     96% 7   1019.7 1016.4 0    
Oct 04 20:34 Calm 12.87 Cloudy SCT002 BKN008 OVC035 8 7     93%     1019.7        
Oct 04 20:26 Calm 3.22 Fog/Mist SCT003 BKN008 OVC035 8 7     93%     1019.7        
Oct 04 20:19 Calm 2.41 Fog/Mist FEW005 BKN010 OVC037 8 7     96%     1019.3        
Oct 04 20:16 SE 5 3.22 Fog/Mist FEW002 BKN008 OVC037 8 7     96% 7   1019.7        
Oct 04 20:04 Calm 14.48 Cloudy SCT002 OVC037 8 7     96%     1019.7        
Oct 04 19:52 5 6.44 Fog/Mist BKN003 OVC035 8 7     96% 7   1019.3 1016.1 0 0  
Oct 04 19:39 ESE 8 3.22 Fog/Mist BKN003 OVC035 8 7     96% 7   1019.3   0    
Oct 04 19:34 8 2.41 Fog/Mist   8 7     96% 7   1019.3   0    
Oct 04 19:24 SSE 9 3.22 Fog/Mist   8 7     93% 7   1019.3   0    
Oct 04 18:58 SE 5 1.61 Light Rain and Fog/Mist BKN004 OVC013 8 7     93% 8   1019   0    
Oct 04 18:51 SE 8 2.01 Light Rain and Fog/Mist FEW004 BKN007 OVC013 8 7     93% 7   1019.3   0    
Oct 04 18:47 SE 5 4.02 Fog/Mist FEW004 BKN012 OVC044 8 7     93% 8   1019.3 1015.8 0    
Oct 04 18:46 SE 5 4.02 Fog/Mist FEW004 BKN012 OVC044 8 7     93% 7   1019.3   0    
Oct 04 18:33 SE 8 4.83 Fog/Mist BKN004 BKN009 OVC045 8 7     93% 7   1019.3   0    
Oct 04 18:22 5 2.82 Light Rain and Fog/Mist BKN004 OVC015 8 7     93% 8   1019.3   0    
Oct 04 17:52 SSE 8 4.83 Light Rain and Fog/Mist BKN004 BKN016 OVC046 8 7     93% 7   1019.3 1015.7 0    
Oct 04 17:03 SSE 9 12.87 Cloudy BKN002 OVC008 8 8     97% 7   1019.3        
Oct 04 16:52 5 16.09 Cloudy BKN005 OVC011 8 7     93% 8   1019.3 1015.7     0
Oct 04 16:49 S 9 16.09 Cloudy BKN005 OVC011 8 8     100% 6   1019.3        
Oct 04 15:59 S 15 8.05 Fog/Mist BKN003 BKN008 OVC013 8 8     97% 6   1019.3        
Oct 04 15:52 SSW 11 11.27 Cloudy SCT003 BKN010 OVC021 8 7     93% 6   1019.3 1015.8      
Oct 04 15:29 S 11 16.09 Cloudy BKN005 BKN012 OVC018 9 8     93% 7   1019.3        
Oct 04 15:04 S 9 16.09 Cloudy BKN004 OVC009 8 7     93% 7   1019.3        
Oct 04 14:52 S 9 16.09 Cloudy BKN006 OVC014 8 7     93% 7   1019.3 1015.8      
Oct 04 14:18 S 11 16.09 Cloudy BKN005 OVC009 8 7     93% 6   1019.3        
Oct 04 13:59 S 13 11.27 Cloudy BKN004 BKN010 OVC013 8 8     97% 6   1019.3        
Oct 04 13:52 S 15 2.82 Fog/Mist BKN004 BKN008 OVC012 8 8     97% 6   1019.3 1015.7   0  
Oct 04 13:45 11 2.01 Fog/Mist BKN004 BKN008 OVC012 8 7     96% 6   1019.3        
Oct 04 13:43 S 15 2.41 Fog/Mist SCT004 BKN008 OVC012 8 7     96% 5   1019.3        
Oct 04 13:38 11 16.09 Cloudy SCT006 BKN010 OVC014 8 7     96% 6   1019.3        
Oct 04 13:14 SSW 5 16.09 Cloudy BKN006 OVC011 8 7     96% 7   1019.3        
Oct 04 12:52 S 8 16.09 Cloudy BKN004 OVC009 7 7     97% 6   1019.3 1016.2 0    
Oct 04 12:45 SSW 8 2.41 Fog/Mist BKN002 OVC007 7 7     97% 6   1019.3   0    
Oct 04 12:37 9 0.8 Fog VV002 8 7     96% 6   1019.3   0    
Oct 04 12:07 11 0.4 Fog VV002 8 7     96% 6   1019.3   0    
Oct 04 11:52 SSW 18 0.8 Light Rain and Fog VV002 8 7     96% 5   1019.3 1015.9 0    
Oct 04 10:52 SW 13 0.4 Fog VV002 8 8     97% 6   1018.6 1015.2 0   1
Sep 25 06:52 NE 13 16.09 Clear CLR 16 -10     16%     1020.7 1012.6      
Sep 25 05:52 NE 13 16.09 Clear CLR 16 -10     16%     1020.3        
May 14 21:52 Calm 16.09 Clear CLR 11 8     86%     1017.6 1012.2      
May 14 10:52 11 16.09 Mostly Clear FEW055 16 1     37%     1018 1012.1      
May 13 09:52 Calm 16.09 Clear   12 4     57%     1018 1013.3      
May 12 18:52 8 16.09 Cloudy OVC090 12 3     56%     1015.2 1011.2      
May 11 21:52 11 16.09 Clear CLR 8 -4     42% 6   1013.2 1008.8      
May 11 17:52 NNE 17 16.09 Clear CLR 13 -7     24%     1012.9 1007.6      
May 11 15:52 NNE 17 16.09 Clear CLR 14 -8     21%     1012.9 1007.4      
Jun 12 01:33 SSE 5 2.01 Light Snow and Fog/Mist BKN003 OVC007 1 1     100% -1   1014.6   0    
Jun 12 01:18 SSW 5 4.02 Light Snow and Fog/Mist OVC004 1 1     100% -1   1014.6   0    
Jun 11 17:08 9 8.05 Fog/Mist SCT004 BKN013 OVC034 2 2     96% -1   1013.6   0    
Jun 11 15:52 W 11 4.02 Light Snow and Fog/Mist FEW010 BKN018 OVC049 2 1     92% -1   1013.9 1012.7 0    
Jun 11 13:02   16.09 Mostly Cloudy FEW022 SCT029 BKN050 6 0     67%     1012.5        
Jun 11 12:52 SSW 17 16.09 Clear   6 -1     64% 2   1012.5 1010.5      
Jun 11 09:59 8 16.09 Cloudy FEW019 BKN028 OVC035 4 1     76% 3            
Jun 11 09:42 S 15 16.09 Mostly Cloudy FEW020 BKN028 BKN034 4 1     79% 0   1011.5        
Jun 11 04:52 8 4.02 Fog/Mist OVC002 3 3     100% 1     1008.3      
Jun 11 02:52 S 9 1.21 Fog/Mist VV002 4 4     100% 2     1008.8      
Jun 11 00:43 S 11 2.01 Fog/Mist OVC002 4 4     100% 2   1012.9        
Jun 10 22:52 S 15 16.09 Cloudy OVC005 6 5     96% 3   1013.6 1010.2      
Jun 10 03:00 SSE 18 4.83 Fog/Mist BKN002 OVC009 7 7     100% 3   1014.2        
Jun 10 02:14 SSE 17 2.01 Fog/Mist OVC002 7 7     100% 4   1014.9        
Jun 09 21:27 S 15 2.82 Fog/Mist BKN002 BKN006 OVC016 8 8     97% 6   1015.6        
Jun 09 18:52 SSW 18 16.09 Cloudy SCT007 BKN010 OVC017 9 8     93% 7     1011.6      
Jun 09 13:52 SW 17 0.4 Clear   9 9     100% 6   1016.3 1012.8 0    
Jun 09 10:52 SSW 15 0.4 Fog VV002 8 8     100% 6   1015.9 1012.7     0
Jun 09 06:35 S 15 0.4 Fog VV002 8 8     100% 5   1016.3        
Jun 09 05:52 S 11 0.4 Fog VV001 8 8     100% 6   1016.3 1012.9      
Jun 09 03:52 S 9 0.4 Fog VV002 8 8     100% 6   1016.9 1013.9      
Jun 09 02:52 S 11 0.8 Fog VV002 8 8     100% 6   1017.3 1014.3      
Notice The following observation data may not be complete
Jun 09 02:08   2.41 Fog/Mist OVC002          %              
Jun 09 01:48 SSW 8 1.21 Fog/Mist VV002 8 8     100% 7   1017.6        
Jun 08 18:52 S 11 0.4 Fog VV002 9 9     100% 7   1019 1015.6      
Notice The following observation data may not be complete
Jun 08 17:42   2.01 Fog/Mist OVC002          %              
Jun 08 11:52   2.82 Light Rain and Fog/Mist SCT006 BKN010 OVC021 6 6     97%     1020 1016.7 0    
Notice The following observation data may not be complete
Jun 08 11:20   3.22 Rain and Fog/Mist FEW005 SCT012 OVC021          %         0    
Jun 07 23:52 SE 11 16.09 Clear CLR 11 4     63%       1010.2      
Jun 07 22:52 SE 11 16.09 Clear CLR 11 4     65%     1017.6 1011      
Jun 07 20:52 S 13 16.09 Clear CLR 14 3     49%     1017.3 1009.9      
Jun 05 21:52 Calm 16.09 Clear CLR 15 0     36%       1011.4